GSAT-6

Last updated on Tue Sep 22 2026 00:03:13 GMT+0000 (Coordinated Universal Time)

1 40880U 15041A 26264.57669108 -.00000163 00000+0 00000+0 0 9992 2 40880 2.1617 81.2619 0002913 102.8737 106.4527 1.00273212 40567
UTC large
Height (km)
Speed (km/s)
/
Latitude / Longitude
Inclination (degrees)
Orbital Period (minutes)
Azimuth
Elevation
Range (km)
Doppler Factor

Next 0 passes for location: London (51.5072 / 0.1276)

No passes found over London.
GSAT-6